Location: Arrien
(43.3167°N, 0.1500°W)
Time: 12:29:30
(UTC+00:00)

Cosmos 1544 Rocket - Pass Details

Date: 06 June 2022
Orbit: 603 x 631 km, 82.5° (Epoch: 03 July)

Event Time Altitude Azimuth Distance (km) Brightness Sun altitude
Rises 00:53:42 0° 345° (NNW) 2,893 8.0 -22.9°
Reaches altitude 10° 00:56:00 10° 340° (NNW) 1,979 6.9 -22.8°
Enters shadow 01:00:09 46° 269° (W) 826 4.0 -22.6°
